N2RF KPVD-KBHB

Flight info

Callsign N2RF
Flight time 0h 49m
Altitude 21000
Route WOONS BOS PEASE ENE KEBTY FOMLU CARDA BECRA
Aircraft C700/M-SBDGHM1RWXY/LB2

Departure

Time 2026-04-21 22:02
Airport Rhode Island T. F. Green International Airport (KPVD)

Arrival

Time 2026-04-21 22:51
Airport Hancock County-Bar Harbor Airport (KBHB)
Time Latitude Longitude Altitude Speed Heading
2026-04-21 21:51 41.73203 -71.42667 56 ft 0 kts
2026-04-21 21:58 41.73201 -71.42651 52 ft 6 kts 133°
2026-04-21 21:58 41.73192 -71.42649 56 ft 0 kts 180°
2026-04-21 21:59 41.73185 -71.42655 54 ft 4 kts 216°
2026-04-21 21:59 41.73175 -71.42708 56 ft 8 kts 268°
2026-04-21 21:59 41.73170 -71.42815 56 ft 15 kts 259°
2026-04-21 22:00 41.73168 -71.42978 57 ft 20 kts 267°
2026-04-21 22:00 41.73165 -71.43086 58 ft 0 kts 268°
2026-04-21 22:00 41.73165 -71.43088 58 ft 3 kts 268°
2026-04-21 22:00 41.73160 -71.43151 54 ft 8 kts 245°
2026-04-21 22:01 41.73119 -71.43161 57 ft 7 kts 148°
2026-04-21 22:01 41.72989 -71.43028 57 ft 61 kts 144°
2026-04-21 22:01 41.72658 -71.42678 48 ft 119 kts 147°
2026-04-21 22:01 41.71861 -71.41829 373 ft 171 kts 147°
2026-04-21 22:02 41.70712 -71.40996 1330 ft 195 kts 165°
2026-04-21 22:02 41.69377 -71.40520 2766 ft 202 kts 167°
2026-04-21 22:02 41.67955 -71.39979 3899 ft 226 kts 166°
2026-04-21 22:02 41.66347 -71.39356 4877 ft 254 kts 167°
2026-04-21 22:03 41.64559 -71.39469 6034 ft 263 kts 205°
2026-04-21 22:03 41.63206 -71.41026 7510 ft 260 kts 242°
2026-04-21 22:03 41.62828 -71.43317 9060 ft 252 kts 280°
2026-04-21 22:03 41.63491 -71.45580 9987 ft 283 kts 306°
2026-04-21 22:04 41.65079 -71.46979 11549 ft 272 kts 339°
2026-04-21 22:04 41.66944 -71.47304 13657 ft 275 kts 353°
2026-04-21 22:04 41.68897 -71.47260 15134 ft 285 kts 354°
2026-04-21 22:04 41.70894 -71.47316 16567 ft 289 kts 351°
2026-04-21 22:05 41.72912 -71.47605 17931 ft 295 kts 347°
2026-04-21 22:05 41.74971 -71.47961 19116 ft 302 kts 348°
2026-04-21 22:05 41.77076 -71.48248 20218 ft 306 kts 349°
2026-04-21 22:05 41.79205 -71.48517 21204 ft 312 kts 349°
2026-04-21 22:06 41.81459 -71.48834 21317 ft 341 kts 349°
2026-04-21 22:06 41.83923 -71.49188 21298 ft 370 kts 349°
2026-04-21 22:06 41.86515 -71.49504 21295 ft 377 kts 352°
2026-04-21 22:06 41.89160 -71.49429 21294 ft 383 kts 359°
2026-04-21 22:07 41.91817 -71.48920 21294 ft 388 kts
2026-04-21 22:07 41.94379 -71.47637 21283 ft 405 kts 23°
2026-04-21 22:07 41.96481 -71.44989 21275 ft 428 kts 45°
2026-04-21 22:07 41.97771 -71.41295 21273 ft 450 kts 67°
2026-04-21 22:08 41.98028 -71.37037 21273 ft 469 kts 89°
2026-04-21 22:08 41.97171 -71.32757 21273 ft 483 kts 110°
2026-04-21 22:08 41.95464 -71.28854 21380 ft 482 kts 115°
2026-04-21 22:08 41.94263 -71.24713 21076 ft 476 kts 97°
2026-04-21 22:09 41.94078 -71.20422 21177 ft 454 kts 77°
2026-04-21 22:09 41.94969 -71.16425 21275 ft 440 kts 56°
2026-04-21 22:09 41.96757 -71.13261 21302 ft 417 kts 36°
2026-04-21 22:09 41.99045 -71.10987 21298 ft 402 kts 21°
2026-04-21 22:10 42.01633 -71.09620 21298 ft 390 kts
2026-04-21 22:10 42.04240 -71.08914 21294 ft 387 kts
2026-04-21 22:10 42.06899 -71.08236 21298 ft 391 kts
2026-04-21 22:10 42.09545 -71.07359 21294 ft 392 kts
2026-04-21 22:11 42.12183 -71.06432 21294 ft 390 kts
2026-04-21 22:11 42.14818 -71.05610 21292 ft 389 kts
2026-04-21 22:11 42.17463 -71.04814 21296 ft 391 kts
2026-04-21 22:11 42.20122 -71.03961 21295 ft 392 kts
2026-04-21 22:12 42.22771 -71.03093 21296 ft 391 kts
2026-04-21 22:12 42.25416 -71.02252 21313 ft 390 kts
2026-04-21 22:12 42.28062 -71.01418 21311 ft 390 kts
2026-04-21 22:12 42.30706 -71.00572 21312 ft 391 kts
2026-04-21 22:13 42.33356 -70.99719 21312 ft 391 kts
2026-04-21 22:13 42.36011 -70.98893 21310 ft 391 kts
2026-04-21 22:13 42.38691 -70.98343 21311 ft 390 kts
2026-04-21 22:13 42.41374 -70.97776 21308 ft 391 kts
2026-04-21 22:14 42.44050 -70.97165 21305 ft 389 kts
2026-04-21 22:14 42.46722 -70.96587 21313 ft 388 kts
2026-04-21 22:14 42.49395 -70.96030 21315 ft 390 kts
2026-04-21 22:14 42.52081 -70.95453 21321 ft 391 kts
2026-04-21 22:15 42.54765 -70.94867 21323 ft 391 kts
2026-04-21 22:15 42.57447 -70.94289 21320 ft 391 kts
2026-04-21 22:15 42.59958 -70.93750 21322 ft 392 kts
2026-04-21 22:15 42.62620 -70.93176 21319 ft 391 kts
2026-04-21 22:16 42.65336 -70.92584 21322 ft 389 kts
2026-04-21 22:16 42.67978 -70.92015 21320 ft 391 kts
2026-04-21 22:16 42.70675 -70.91434 21321 ft 393 kts
2026-04-21 22:16 42.73369 -70.90848 21318 ft 392 kts
2026-04-21 22:17 42.76059 -70.90263 21321 ft 392 kts
2026-04-21 22:17 42.78755 -70.89678 21316 ft 392 kts
2026-04-21 22:17 42.81448 -70.89094 21319 ft 392 kts
2026-04-21 22:17 42.84147 -70.88507 21320 ft 393 kts
2026-04-21 22:18 42.86847 -70.87919 21309 ft 393 kts
2026-04-21 22:18 42.89527 -70.87335 21304 ft 394 kts
2026-04-21 22:18 42.91992 -70.86798 21306 ft 395 kts
2026-04-21 22:18 42.94697 -70.86206 21304 ft 394 kts
2026-04-21 22:19 42.97403 -70.85614 21305 ft 392 kts
2026-04-21 22:19 43.00095 -70.85028 21299 ft 393 kts
2026-04-21 22:19 43.02811 -70.84434 21304 ft 396 kts
2026-04-21 22:19 43.05533 -70.83838 21300 ft 395 kts
2026-04-21 22:20 43.08219 -70.83021 21295 ft 398 kts 11°
2026-04-21 22:20 43.10838 -70.81688 21300 ft 406 kts 18°
2026-04-21 22:20 43.13403 -70.80022 21303 ft 408 kts 19°
2026-04-21 22:20 43.15976 -70.78391 21302 ft 407 kts 18°
2026-04-21 22:21 43.18545 -70.76773 21305 ft 406 kts 18°
2026-04-21 22:21 43.21099 -70.75135 21302 ft 407 kts 19°
2026-04-21 22:21 43.23669 -70.73484 21299 ft 408 kts 19°
2026-04-21 22:21 43.26248 -70.71835 21315 ft 409 kts 19°
2026-04-21 22:22 43.28830 -70.70184 21313 ft 408 kts 19°
2026-04-21 22:22 43.31400 -70.68533 21315 ft 408 kts 19°
2026-04-21 22:22 43.33972 -70.66883 21311 ft 408 kts 19°
2026-04-21 22:22 43.36512 -70.65251 21315 ft 409 kts 19°
2026-04-21 22:23 43.39059 -70.63480 21307 ft 413 kts 24°
2026-04-21 22:23 43.41431 -70.61185 21307 ft 420 kts 32°
2026-04-21 22:23 43.43583 -70.58403 21306 ft 428 kts 41°
2026-04-21 22:23 43.45450 -70.55165 21303 ft 436 kts 50°
2026-04-21 22:24 43.47075 -70.51641 21307 ft 435 kts 52°
2026-04-21 22:24 43.48706 -70.48142 21318 ft 434 kts 51°
2026-04-21 22:24 43.50347 -70.44640 21323 ft 437 kts 51°
2026-04-21 22:24 43.51981 -70.41102 21322 ft 438 kts 52°
2026-04-21 22:25 43.53604 -70.37568 21323 ft 436 kts 52°
2026-04-21 22:25 43.55232 -70.34048 21319 ft 435 kts 52°
2026-04-21 22:25 43.56865 -70.30526 21322 ft 437 kts 52°
2026-04-21 22:25 43.58504 -70.26969 21320 ft 438 kts 52°
2026-04-21 22:26 43.60131 -70.23424 21320 ft 436 kts 52°
2026-04-21 22:26 43.61754 -70.19893 21321 ft 436 kts 52°
2026-04-21 22:26 43.63360 -70.16395 21303 ft 417 kts 52°
2026-04-21 22:26 43.64870 -70.13083 20366 ft 405 kts 52°
2026-04-21 22:27 43.66380 -70.09813 19287 ft 401 kts 53°
2026-04-21 22:27 43.67864 -70.06580 18265 ft 395 kts 53°
2026-04-21 22:27 43.69315 -70.03394 17170 ft 389 kts 54°
2026-04-21 22:27 43.70748 -70.00253 16155 ft 383 kts 54°
2026-04-21 22:28 43.72142 -69.97202 15170 ft 378 kts 54°
2026-04-21 22:28 43.73534 -69.94150 14206 ft 373 kts 54°
2026-04-21 22:28 43.74905 -69.91136 13166 ft 367 kts 55°
2026-04-21 22:28 43.76255 -69.88166 12191 ft 361 kts 55°
2026-04-21 22:29 43.77578 -69.85254 11255 ft 356 kts 55°
2026-04-21 22:29 43.78825 -69.82298 11003 ft 359 kts 58°
2026-04-21 22:29 43.80121 -69.79201 11008 ft 375 kts 57°
2026-04-21 22:29 43.81442 -69.76102 11009 ft 375 kts 57°
2026-04-21 22:30 43.82760 -69.72961 11004 ft 378 kts 58°
2026-04-21 22:30 43.84065 -69.69812 11014 ft 377 kts 58°
2026-04-21 22:30 43.85379 -69.66666 11008 ft 376 kts 58°
2026-04-21 22:30 43.86693 -69.63523 11008 ft 377 kts 58°
2026-04-21 22:31 43.88002 -69.60381 11004 ft 377 kts 58°
2026-04-21 22:31 43.89313 -69.57228 11011 ft 378 kts 58°
2026-04-21 22:31 43.90630 -69.54061 11010 ft 378 kts 58°
2026-04-21 22:31 43.91940 -69.50907 11012 ft 377 kts 58°
2026-04-21 22:32 43.93246 -69.47758 11009 ft 376 kts 58°
2026-04-21 22:32 43.94554 -69.44602 11007 ft 377 kts 58°
2026-04-21 22:32 43.95862 -69.41441 11007 ft 378 kts 58°
2026-04-21 22:32 43.97176 -69.38266 11010 ft 379 kts 58°
2026-04-21 22:33 43.98482 -69.35096 11012 ft 378 kts 58°
2026-04-21 22:33 43.99772 -69.31970 11010 ft 377 kts 58°
2026-04-21 22:33 44.01077 -69.28807 11011 ft 377 kts 58°
2026-04-21 22:33 44.02376 -69.25653 11009 ft 378 kts 58°
2026-04-21 22:34 44.03684 -69.22468 11006 ft 378 kts 59°
2026-04-21 22:34 44.04990 -69.19289 11010 ft 379 kts 59°
2026-04-21 22:34 44.06435 -69.16242 10999 ft 377 kts 47°
2026-04-21 22:34 44.08349 -69.13778 10993 ft 373 kts 36°
2026-04-21 22:35 44.10410 -69.11573 10992 ft 373 kts 35°
2026-04-21 22:35 44.12400 -69.09263 10990 ft 375 kts 41°
2026-04-21 22:35 44.14234 -69.06670 10992 ft 376 kts 45°
2026-04-21 22:35 44.16060 -69.04054 10990 ft 376 kts 42°
2026-04-21 22:36 44.19760 -68.99313 10819 ft 336 kts 41°
2026-04-21 22:36 44.21375 -68.97131 10782 ft 310 kts 42°
2026-04-21 22:36 44.22874 -68.95113 10561 ft 294 kts 41°
2026-04-21 22:37 44.24360 -68.93155 9975 ft 293 kts 41°
2026-04-21 22:37 44.25831 -68.91210 9445 ft 290 kts 41°
2026-04-21 22:37 44.27280 -68.89274 8918 ft 286 kts 41°
2026-04-21 22:37 44.28712 -68.87366 8400 ft 283 kts 41°
2026-04-21 22:38 44.30125 -68.85482 7892 ft 280 kts 41°
2026-04-21 22:38 44.31525 -68.83617 7401 ft 277 kts 41°
2026-04-21 22:38 44.32909 -68.81769 6926 ft 274 kts 41°
2026-04-21 22:38 44.34261 -68.79962 6459 ft 270 kts 41°
2026-04-21 22:39 44.35610 -68.78158 5993 ft 266 kts 41°
2026-04-21 22:39 44.36943 -68.76377 5518 ft 263 kts 41°
2026-04-21 22:39 44.38259 -68.74615 5076 ft 260 kts 40°
2026-04-21 22:39 44.39554 -68.72880 4603 ft 257 kts 41°
2026-04-21 22:40 44.40844 -68.71152 4118 ft 255 kts 40°
2026-04-21 22:40 44.42119 -68.69443 3651 ft 253 kts 41°
2026-04-21 22:40 44.43387 -68.67742 3156 ft 252 kts 40°
2026-04-21 22:40 44.44630 -68.66071 3003 ft 242 kts 40°
2026-04-21 22:41 44.45853 -68.64429 2993 ft 248 kts 40°
2026-04-21 22:41 44.47114 -68.62742 2996 ft 253 kts 40°
2026-04-21 22:41 44.48383 -68.61029 2996 ft 252 kts 40°
2026-04-21 22:41 44.49641 -68.59332 2995 ft 251 kts 40°
2026-04-21 22:42 44.50898 -68.57637 2998 ft 250 kts 40°
2026-04-21 22:42 44.52121 -68.55990 2993 ft 235 kts 40°
2026-04-21 22:42 44.53257 -68.54456 2988 ft 219 kts 40°
2026-04-21 22:42 44.54323 -68.53016 2988 ft 206 kts 40°
2026-04-21 22:43 44.55322 -68.51670 2991 ft 198 kts 39°
2026-04-21 22:43 44.56312 -68.50336 2991 ft 198 kts 40°
2026-04-21 22:43 44.57309 -68.48992 2992 ft 200 kts 40°
2026-04-21 22:43 44.58313 -68.47632 2993 ft 201 kts 40°
2026-04-21 22:44 44.59323 -68.46269 2994 ft 201 kts 40°
2026-04-21 22:44 44.60331 -68.44904 2988 ft 202 kts 40°
2026-04-21 22:44 44.61355 -68.43520 2994 ft 211 kts 40°
2026-04-21 22:44 44.62476 -68.42004 3007 ft 237 kts 40°
2026-04-21 22:45 44.63708 -68.40337 3011 ft 250 kts 40°
2026-04-21 22:45 44.64966 -68.38626 3012 ft 252 kts 41°
2026-04-21 22:45 44.66188 -68.36866 3005 ft 253 kts 49°
2026-04-21 22:45 44.66948 -68.34619 3010 ft 259 kts 71°
2026-04-21 22:46 44.67126 -68.32954 3006 ft 262 kts 86°
2026-04-21 22:46 44.66822 -68.30421 3001 ft 266 kts 108°
2026-04-21 22:46 44.65869 -68.28207 3005 ft 267 kts 131°
2026-04-21 22:46 44.64393 -68.26639 2991 ft 268 kts 154°
2026-04-21 22:47 44.62617 -68.25960 2986 ft 265 kts 177°
2026-04-21 22:47 44.60803 -68.26245 2989 ft 261 kts 200°
2026-04-21 22:47 44.59151 -68.27258 2993 ft 256 kts 208°
2026-04-21 22:47 44.57670 -68.28208 2720 ft 210 kts 208°
2026-04-21 22:48 44.56417 -68.29006 2113 ft 187 kts 209°
2026-04-21 22:48 44.55344 -68.29697 2083 ft 158 kts 210°
2026-04-21 22:48 44.54319 -68.30369 1951 ft 170 kts 210°
2026-04-21 22:48 44.53258 -68.31048 1709 ft 164 kts 208°
2026-04-21 22:49 44.52235 -68.31702 1495 ft 162 kts 209°
2026-04-21 22:49 44.51222 -68.32347 1496 ft 163 kts 208°
2026-04-21 22:49 44.50213 -68.32992 1140 ft 158 kts 209°
2026-04-21 22:49 44.49286 -68.33608 901 ft 138 kts 207°
2026-04-21 22:50 44.48451 -68.34129 787 ft 127 kts 204°
2026-04-21 22:50 44.47574 -68.34693 753 ft 140 kts 206°
2026-04-21 22:50 44.46764 -68.35209 417 ft 116 kts 204°
2026-04-21 22:50 44.46047 -68.35663 166 ft 120 kts 204°
2026-04-21 22:51 44.45363 -68.36104 84 ft 81 kts 206°
2026-04-21 22:51 44.45023 -68.36321 85 ft 41 kts 205°
2026-04-21 22:51 44.44800 -68.36462 72 ft 31 kts 205°
2026-04-21 22:51 44.44681 -68.36485 77 ft 10 kts 110°
2026-04-21 22:52 44.44681 -68.36372 77 ft 13 kts 85°
2026-04-21 22:52 44.44682 -68.36224 70 ft 8 kts 99°
2026-04-21 22:52 44.44641 -68.36210 68 ft 8 kts 204°
2026-04-21 22:52 44.44574 -68.36250 72 ft 5 kts 180°
2026-04-21 22:53 44.44564 -68.36221 67 ft 1 kts
2026-04-21 22:53 44.44567 -68.36227 66 ft 0 kts 308°